contact:dominique.lefevre@mio.osupytheas.fr, maurice.libes@osupytheas.fr, didier.mallarino@osupytheas.fr
Project:EMSO http://www.emso-fr.org/EMSO-France
Depth: 2436.0 m
Title:EMSO Ligure Ouest : Data MII capteur CSTAR
DateTime,Latitude,Longitude,Instrument_Serial,Reference_Counts,Signal_Counts,Corrected_Signal_raw_counts,Calculated_Beam_c_inverse_meters,Internal_thermistor_counts
DateTime,Latitude,Longitude,Instrument_Serial,Reference_Counts,Signal_Counts,Corrected_Signal_raw_counts,Calculated_Beam_c_inverse_meters,Internal_thermistor_counts
2019-11-27T00:02:51,42.805,6.029,CST-1368DR,7280,10199,15298,0.082,551
2019-11-27T00:05:52,42.805,6.029,CST-1368DR,7280,10197,15295,0.083,551
2019-11-27T00:08:54,42.805,6.029,CST-1368DR,7280,10200,15298,0.082,551
2019-11-27T00:11:56,42.805,6.029,CST-1368DR,7280,10199,15298,0.082,551
2019-11-27T00:14:57,42.805,6.029,CST-1368DR,7280,10197,15294,0.083,551
2019-11-27T00:17:59,42.805,6.029,CST-1368DR,7280,10197,15294,0.083,551
2019-11-27T00:21:00,42.805,6.029,CST-1368DR,7280,10200,15299,0.082,551
2019-11-27T00:24:02,42.805,6.029,CST-1368DR,7280,10200,15299,0.082,551
2019-11-27T00:27:04,42.805,6.029,CST-1368DR,7280,10199,15298,0.082,551
2019-11-27T00:30:06,42.805,6.029,CST-1368DR,7280,10199,15298,0.082,550
2019-11-27T00:33:07,42.805,6.029,CST-1368DR,7280,10200,15298,0.082,551
2019-11-27T00:36:09,42.805,6.029,CST-1368DR,7280,10200,15298,0.082,551
2019-11-27T00:39:10,42.805,6.029,CST-1368DR,7280,10199,15297,0.083,551
2019-11-27T00:42:12,42.805,6.029,CST-1368DR,7280,10198,15295,0.083,551
2019-11-27T00:45:14,42.805,6.029,CST-1368DR,7280,10197,15295,0.083,550
2019-11-27T00:48:15,42.805,6.029,CST-1368DR,7280,10199,15297,0.083,551
2019-11-27T00:51:17,42.805,6.029,CST-1368DR,7280,10198,15295,0.083,551
2019-11-27T00:54:19,42.805,6.029,CST-1368DR,7280,10199,15297,0.083,551
2019-11-27T00:57:20,42.805,6.029,CST-1368DR,7280,10198,15296,0.083,551
2019-11-27T01:00:22,42.805,6.029,CST-1368DR,7279,10198,15298,0.082,551
2019-11-27T01:03:23,42.805,6.029,CST-1368DR,7279,10198,15298,0.082,550
2019-11-27T01:06:25,42.805,6.029,CST-1368DR,7279,10194,15292,0.084,550
2019-11-27T01:09:27,42.805,6.029,CST-1368DR,7280,10198,15296,0.083,551
2019-11-27T01:12:28,42.805,6.029,CST-1368DR,7279,10198,15298,0.082,551
2019-11-27T01:15:30,42.805,6.029,CST-1368DR,7279,10197,15297,0.083,551
2019-11-27T01:18:31,42.805,6.029,CST-1368DR,7279,10197,15296,0.083,551
2019-11-27T01:21:33,42.805,6.029,CST-1368DR,7279,10198,15297,0.083,551
2019-11-27T01:24:35,42.805,6.029,CST-1368DR,7279,10199,15299,0.082,551
2019-11-27T01:27:36,42.805,6.029,CST-1368DR,7279,10199,15300,0.082,551
2019-11-27T01:30:38,42.805,6.029,CST-1368DR,7279,10199,15299,0.082,551
2019-11-27T01:33:40,42.805,6.029,CST-1368DR,7279,10196,15294,0.083,551
2019-11-27T01:36:41,42.805,6.029,CST-1368DR,7279,10199,15299,0.082,551
2019-11-27T01:39:43,42.805,6.029,CST-1368DR,7279,10199,15300,0.082,551
2019-11-27T01:42:44,42.805,6.029,CST-1368DR,7279,10198,15298,0.082,551
2019-11-27T01:45:46,42.805,6.029,CST-1368DR,7279,10198,15298,0.082,551
2019-11-27T01:48:48,42.805,6.029,CST-1368DR,7279,10200,15300,0.082,551
2019-11-27T01:51:49,42.805,6.029,CST-1368DR,7279,10199,15299,0.082,551
2019-11-27T01:54:51,42.805,6.029,CST-1368DR,7279,10198,15298,0.082,551
2019-11-27T01:57:53,42.805,6.029,CST-1368DR,7279,10199,15300,0.082,551
2019-11-27T02:00:54,42.805,6.029,CST-1368DR,7279,10199,15300,0.082,551
2019-11-27T02:03:56,42.805,6.029,CST-1368DR,7279,10199,15300,0.082,550
2019-11-27T02:06:57,42.805,6.029,CST-1368DR,7279,10198,15298,0.082,551
2019-11-27T02:09:59,42.805,6.029,CST-1368DR,7279,10197,15296,0.083,551
2019-11-27T02:13:01,42.805,6.029,CST-1368DR,7279,10198,15298,0.082,551
2019-11-27T02:16:02,42.805,6.029,CST-1368DR,7279,10199,15300,0.082,551
2019-11-27T02:19:04,42.805,6.029,CST-1368DR,7279,10198,15298,0.082,551
2019-11-27T02:22:06,42.805,6.029,CST-1368DR,7279,10200,15300,0.082,550
2019-11-27T02:25:07,42.805,6.029,CST-1368DR,7279,10199,15299,0.082,551
2019-11-27T02:28:09,42.805,6.029,CST-1368DR,7279,10200,15301,0.082,551
2019-11-27T02:31:11,42.805,6.029,CST-1368DR,7279,10199,15300,0.082,551
2019-11-27T02:34:12,42.805,6.029,CST-1368DR,7279,10198,15298,0.082,551
2019-11-27T02:37:14,42.805,6.029,CST-1368DR,7279,10197,15297,0.083,551
2019-11-27T02:40:16,42.805,6.029,CST-1368DR,7279,10199,15299,0.082,551
2019-11-27T02:43:17,42.805,6.029,CST-1368DR,7279,10199,15299,0.082,551
2019-11-27T02:46:19,42.805,6.029,CST-1368DR,7279,10199,15299,0.082,551
2019-11-27T02:49:21,42.805,6.029,CST-1368DR,7279,10200,15301,0.082,551
2019-11-27T02:52:22,42.805,6.029,CST-1368DR,7279,10197,15297,0.083,551
2019-11-27T02:55:24,42.805,6.029,CST-1368DR,7279,10200,15300,0.082,551
2019-11-27T02:58:26,42.805,6.029,CST-1368DR,7279,10198,15298,0.082,551
2019-11-27T03:01:27,42.805,6.029,CST-1368DR,7279,10197,15297,0.083,551
2019-11-27T03:04:29,42.805,6.029,CST-1368DR,7279,10199,15300,0.082,551
2019-11-27T03:07:30,42.805,6.029,CST-1368DR,7279,10198,15298,0.082,551
2019-11-27T03:10:32,42.805,6.029,CST-1368DR,7279,10197,15297,0.083,551
2019-11-27T03:13:34,42.805,6.029,CST-1368DR,7279,10195,15293,0.084,551
2019-11-27T03:16:35,42.805,6.029,CST-1368DR,7279,10200,15300,0.082,551
2019-11-27T03:19:37,42.805,6.029,CST-1368DR,7279,10199,15300,0.082,551
2019-11-27T03:22:39,42.805,6.029,CST-1368DR,7279,10198,15298,0.082,551
2019-11-27T03:25:40,42.805,6.029,CST-1368DR,7279,10198,15297,0.083,551
2019-11-27T03:28:42,42.805,6.029,CST-1368DR,7279,10194,15292,0.084,551
2019-11-27T03:31:43,42.805,6.029,CST-1368DR,7279,10199,15300,0.082,551
2019-11-27T03:34:45,42.805,6.029,CST-1368DR,7279,10199,15300,0.082,551
2019-11-27T03:37:47,42.805,6.029,CST-1368DR,7279,10200,15301,0.082,551
2019-11-27T03:40:48,42.805,6.029,CST-1368DR,7279,10200,15301,0.082,550
2019-11-27T03:43:50,42.805,6.029,CST-1368DR,7279,10199,15299,0.082,551
2019-11-27T03:46:52,42.805,6.029,CST-1368DR,7279,10200,15301,0.082,551
2019-11-27T03:49:53,42.805,6.029,CST-1368DR,7279,10198,15298,0.082,551
2019-11-27T03:52:55,42.805,6.029,CST-1368DR,7279,10198,15298,0.082,551
2019-11-27T03:55:56,42.805,6.029,CST-1368DR,7279,10200,15300,0.082,551
2019-11-27T03:58:58,42.805,6.029,CST-1368DR,7279,10198,15298,0.082,551
2019-11-27T04:02:00,42.805,6.029,CST-1368DR,7279,10197,15297,0.083,551
2019-11-27T04:05:01,42.805,6.029,CST-1368DR,7279,10199,15299,0.082,551
2019-11-27T04:08:03,42.805,6.029,CST-1368DR,7279,10198,15298,0.082,551
2019-11-27T04:11:05,42.805,6.029,CST-1368DR,7279,10198,15298,0.082,551
2019-11-27T04:14:06,42.805,6.029,CST-1368DR,7279,10200,15301,0.082,551
2019-11-27T04:17:08,42.805,6.029,CST-1368DR,7279,10197,15297,0.083,551
2019-11-27T04:20:09,42.805,6.029,CST-1368DR,7279,10198,15298,0.082,551
2019-11-27T04:23:11,42.805,6.029,CST-1368DR,7279,10199,15300,0.082,551
2019-11-27T04:26:13,42.805,6.029,CST-1368DR,7279,10198,15297,0.083,551
2019-11-27T04:29:14,42.805,6.029,CST-1368DR,7279,10198,15298,0.082,551
2019-11-27T04:32:16,42.805,6.029,CST-1368DR,7279,10199,15300,0.082,551
2019-11-27T04:35:18,42.805,6.029,CST-1368DR,7279,10199,15299,0.082,551
2019-11-27T04:38:19,42.805,6.029,CST-1368DR,7278,10195,15295,0.083,551
2019-11-27T04:41:21,42.805,6.029,CST-1368DR,7279,10198,15298,0.082,551
2019-11-27T04:44:23,42.805,6.029,CST-1368DR,7279,10197,15296,0.083,551
2019-11-27T04:47:24,42.805,6.029,CST-1368DR,7278,10197,15299,0.082,550
2019-11-27T04:50:26,42.805,6.029,CST-1368DR,7279,10195,15294,0.083,551
2019-11-27T04:53:28,42.805,6.029,CST-1368DR,7278,10198,15300,0.082,551
2019-11-27T04:56:29,42.805,6.029,CST-1368DR,7278,10195,15295,0.083,551
2019-11-27T04:59:31,42.805,6.029,CST-1368DR,7278,10198,15300,0.082,551
2019-11-27T05:02:33,42.805,6.029,CST-1368DR,7278,10199,15301,0.082,551
2019-11-27T05:05:35,42.805,6.029,CST-1368DR,7278,10196,15297,0.083,551
2019-11-27T05:08:36,42.805,6.029,CST-1368DR,7278,10197,15299,0.082,551
2019-11-27T05:11:38,42.805,6.029,CST-1368DR,7278,10197,15298,0.082,551
2019-11-27T05:14:40,42.805,6.029,CST-1368DR,7278,10198,15299,0.082,551
2019-11-27T05:17:41,42.805,6.029,CST-1368DR,7278,10199,15301,0.082,551
2019-11-27T05:20:43,42.805,6.029,CST-1368DR,7278,10198,15299,0.082,551
2019-11-27T05:23:45,42.805,6.029,CST-1368DR,7278,10196,15297,0.083,551
2019-11-27T05:26:46,42.805,6.029,CST-1368DR,7278,10196,15297,0.083,551
2019-11-27T05:29:48,42.805,6.029,CST-1368DR,7278,10198,15299,0.082,551
2019-11-27T05:32:49,42.805,6.029,CST-1368DR,7278,10197,15298,0.082,551
2019-11-27T05:35:51,42.805,6.029,CST-1368DR,7278,10199,15301,0.082,551
2019-11-27T05:38:53,42.805,6.029,CST-1368DR,7278,10197,15299,0.082,551
2019-11-27T05:41:54,42.805,6.029,CST-1368DR,7278,10198,15299,0.082,551
2019-11-27T05:44:56,42.805,6.029,CST-1368DR,7278,10198,15300,0.082,551
2019-11-27T05:47:58,42.805,6.029,CST-1368DR,7278,10195,15295,0.083,550
2019-11-27T05:50:59,42.805,6.029,CST-1368DR,7278,10197,15298,0.082,551
2019-11-27T05:54:01,42.805,6.029,CST-1368DR,7278,10195,15295,0.083,551
2019-11-27T05:57:02,42.805,6.029,CST-1368DR,7278,10197,15298,0.082,551
2019-11-27T06:00:04,42.805,6.029,CST-1368DR,7278,10197,15298,0.082,551
2019-11-27T06:03:06,42.805,6.029,CST-1368DR,7278,10195,15295,0.083,551
2019-11-27T06:06:07,42.805,6.029,CST-1368DR,7278,10194,15294,0.083,551
2019-11-27T06:09:09,42.805,6.029,CST-1368DR,7278,10198,15299,0.082,551
2019-11-27T06:12:11,42.805,6.029,CST-1368DR,7278,10191,15290,0.084,551
2019-11-27T06:15:12,42.805,6.029,CST-1368DR,7278,10197,15298,0.082,551
2019-11-27T06:18:14,42.805,6.029,CST-1368DR,7278,10198,15300,0.082,551
2019-11-27T06:21:16,42.805,6.029,CST-1368DR,7278,10197,15298,0.082,551
2019-11-27T06:24:17,42.805,6.029,CST-1368DR,7278,10199,15301,0.082,551
2019-11-27T06:27:19,42.805,6.029,CST-1368DR,7278,10198,15300,0.082,551
2019-11-27T06:30:20,42.805,6.029,CST-1368DR,7278,10197,15299,0.082,551
2019-11-27T06:33:22,42.805,6.029,CST-1368DR,7278,10198,15300,0.082,551
2019-11-27T06:36:24,42.805,6.029,CST-1368DR,7278,10196,15297,0.083,551
2019-11-27T06:39:25,42.805,6.029,CST-1368DR,7278,10197,15298,0.082,551
2019-11-27T06:42:27,42.805,6.029,CST-1368DR,7278,10197,15299,0.082,551
2019-11-27T06:45:29,42.805,6.029,CST-1368DR,7278,10198,15299,0.082,551
2019-11-27T06:48:30,42.805,6.029,CST-1368DR,7278,10197,15298,0.082,551
2019-11-27T06:51:32,42.805,6.029,CST-1368DR,7278,10198,15300,0.082,550
2019-11-27T06:54:33,42.805,6.029,CST-1368DR,7278,10196,15296,0.083,551
2019-11-27T06:57:35,42.805,6.029,CST-1368DR,7278,10197,15298,0.082,551
2019-11-27T07:00:37,42.805,6.029,CST-1368DR,7278,10197,15298,0.082,551
2019-11-27T07:03:38,42.805,6.029,CST-1368DR,7278,10197,15298,0.082,551
2019-11-27T07:06:40,42.805,6.029,CST-1368DR,7278,10198,15299,0.082,551
2019-11-27T07:09:42,42.805,6.029,CST-1368DR,7278,10197,15299,0.082,551
2019-11-27T07:12:43,42.805,6.029,CST-1368DR,7278,10197,15298,0.082,551
2019-11-27T07:15:45,42.805,6.029,CST-1368DR,7278,10196,15297,0.083,551
2019-11-27T07:18:46,42.805,6.029,CST-1368DR,7278,10197,15298,0.082,551
2019-11-27T07:21:48,42.805,6.029,CST-1368DR,7278,10197,15298,0.082,551
2019-11-27T07:24:50,42.805,6.029,CST-1368DR,7278,10197,15298,0.082,551
2019-11-27T07:27:51,42.805,6.029,CST-1368DR,7278,10196,15296,0.083,551
2019-11-27T07:30:53,42.805,6.029,CST-1368DR,7278,10197,15298,0.082,551
2019-11-27T07:33:55,42.805,6.029,CST-1368DR,7278,10196,15297,0.083,550
2019-11-27T07:36:56,42.805,6.029,CST-1368DR,7278,10197,15298,0.082,551
2019-11-27T07:39:58,42.805,6.029,CST-1368DR,7278,10197,15298,0.082,551
2019-11-27T07:42:59,42.805,6.029,CST-1368DR,7278,10197,15298,0.082,551
2019-11-27T07:46:01,42.805,6.029,CST-1368DR,7278,10194,15294,0.083,551
2019-11-27T07:49:03,42.805,6.029,CST-1368DR,7278,10197,15298,0.082,551
2019-11-27T07:52:04,42.805,6.029,CST-1368DR,7278,10196,15297,0.083,551
2019-11-27T07:55:06,42.805,6.029,CST-1368DR,7278,10197,15298,0.082,551
2019-11-27T07:58:08,42.805,6.029,CST-1368DR,7278,10196,15297,0.083,551
2019-11-27T08:01:09,42.805,6.029,CST-1368DR,7278,10196,15297,0.083,551
2019-11-27T08:04:11,42.805,6.029,CST-1368DR,7278,10197,15298,0.082,551
2019-11-27T08:07:13,42.805,6.029,CST-1368DR,7278,10195,15295,0.083,551
2019-11-27T08:10:14,42.805,6.029,CST-1368DR,7278,10196,15297,0.083,551
2019-11-27T08:13:16,42.805,6.029,CST-1368DR,7278,10196,15296,0.083,551
2019-11-27T08:16:18,42.805,6.029,CST-1368DR,7277,10196,15298,0.082,551
2019-11-27T08:19:19,42.805,6.029,CST-1368DR,7278,10194,15294,0.083,551
2019-11-27T08:22:21,42.805,6.029,CST-1368DR,7277,10196,15299,0.082,551
2019-11-27T08:25:23,42.805,6.029,CST-1368DR,7277,10196,15299,0.082,551
2019-11-27T08:28:24,42.805,6.029,CST-1368DR,7277,10197,15300,0.082,551
2019-11-27T08:31:26,42.805,6.029,CST-1368DR,7277,10197,15300,0.082,551
2019-11-27T08:34:28,42.805,6.029,CST-1368DR,7277,10196,15299,0.082,551
2019-11-27T08:37:29,42.805,6.029,CST-1368DR,7277,10196,15299,0.082,551
2019-11-27T08:40:31,42.805,6.029,CST-1368DR,7277,10195,15297,0.083,551
2019-11-27T08:43:33,42.805,6.029,CST-1368DR,7277,10197,15300,0.082,551
2019-11-27T08:46:34,42.805,6.029,CST-1368DR,7277,10194,15296,0.083,551
2019-11-27T08:49:36,42.805,6.029,CST-1368DR,7277,10196,15299,0.082,551
2019-11-27T08:52:38,42.805,6.029,CST-1368DR,7277,10193,15294,0.083,551
2019-11-27T08:55:39,42.805,6.029,CST-1368DR,7277,10196,15299,0.082,551
2019-11-27T08:58:41,42.805,6.029,CST-1368DR,7277,10196,15299,0.082,551
2019-11-27T09:01:42,42.805,6.029,CST-1368DR,7277,10197,15300,0.082,551
2019-11-27T09:04:44,42.805,6.029,CST-1368DR,7277,10197,15301,0.082,551
2019-11-27T09:07:46,42.805,6.029,CST-1368DR,7277,10194,15296,0.083,551
2019-11-27T09:10:48,42.805,6.029,CST-1368DR,7277,10194,15296,0.083,551
2019-11-27T09:13:49,42.805,6.029,CST-1368DR,7277,10196,15299,0.082,551
2019-11-27T09:16:51,42.805,6.029,CST-1368DR,7277,10195,15297,0.083,551
2019-11-27T09:19:53,42.805,6.029,CST-1368DR,7277,10195,15297,0.083,551
2019-11-27T09:22:54,42.805,6.029,CST-1368DR,7277,10196,15298,0.082,551
2019-11-27T09:25:56,42.805,6.029,CST-1368DR,7277,10195,15297,0.083,551
2019-11-27T09:28:57,42.805,6.029,CST-1368DR,7277,10194,15296,0.083,550
2019-11-27T09:31:59,42.805,6.029,CST-1368DR,7277,10195,15297,0.083,551
2019-11-27T09:35:01,42.805,6.029,CST-1368DR,7277,10196,15299,0.082,551
2019-11-27T09:38:02,42.805,6.029,CST-1368DR,7277,10193,15295,0.083,551
2019-11-27T09:41:04,42.805,6.029,CST-1368DR,7277,10195,15297,0.083,551
2019-11-27T09:44:06,42.805,6.029,CST-1368DR,7277,10194,15296,0.083,551
2019-11-27T09:47:07,42.805,6.029,CST-1368DR,7277,10196,15298,0.082,551
2019-11-27T09:50:09,42.805,6.029,CST-1368DR,7277,10194,15296,0.083,551
2019-11-27T09:53:10,42.805,6.029,CST-1368DR,7277,10194,15296,0.083,551
2019-11-27T09:56:12,42.805,6.029,CST-1368DR,7277,10194,15295,0.083,551
2019-11-27T09:59:14,42.805,6.029,CST-1368DR,7277,10196,15299,0.082,551
2019-11-27T10:02:15,42.805,6.029,CST-1368DR,7277,10196,15299,0.082,551
2019-11-27T10:05:17,42.805,6.029,CST-1368DR,7277,10197,15300,0.082,551
2019-11-27T10:08:19,42.805,6.029,CST-1368DR,7277,10192,15293,0.084,551
2019-11-27T10:11:20,42.805,6.029,CST-1368DR,7277,10197,15300,0.082,551
2019-11-27T10:14:22,42.805,6.029,CST-1368DR,7277,10196,15299,0.082,551
2019-11-27T10:17:23,42.805,6.029,CST-1368DR,7277,10195,15297,0.083,551
2019-11-27T10:20:25,42.805,6.029,CST-1368DR,7277,10196,15298,0.082,551
2019-11-27T10:23:27,42.805,6.029,CST-1368DR,7277,10196,15299,0.082,551
2019-11-27T10:26:28,42.805,6.029,CST-1368DR,7277,10196,15298,0.082,551
2019-11-27T10:29:31,42.805,6.029,CST-1368DR,7277,10196,15299,0.082,551
2019-11-27T10:32:32,42.805,6.029,CST-1368DR,7277,10195,15297,0.083,551
2019-11-27T10:35:34,42.805,6.029,CST-1368DR,7277,10194,15296,0.083,551
2019-11-27T10:38:36,42.805,6.029,CST-1368DR,7277,10195,15297,0.083,551
2019-11-27T10:41:37,42.805,6.029,CST-1368DR,7277,10194,15296,0.083,551
2019-11-27T10:44:39,42.805,6.029,CST-1368DR,7277,10195,15297,0.083,551
2019-11-27T10:47:41,42.805,6.029,CST-1368DR,7277,10196,15299,0.082,550
2019-11-27T10:50:42,42.805,6.029,CST-1368DR,7277,10193,15295,0.083,550
2019-11-27T10:53:44,42.805,6.029,CST-1368DR,7277,10194,15296,0.083,551
2019-11-27T10:56:45,42.805,6.029,CST-1368DR,7277,10195,15297,0.083,551
2019-11-27T10:59:47,42.805,6.029,CST-1368DR,7277,10194,15296,0.083,551
2019-11-27T11:02:49,42.805,6.029,CST-1368DR,7277,10194,15295,0.083,551
2019-11-27T11:05:51,42.805,6.029,CST-1368DR,7277,10196,15298,0.082,551
2019-11-27T11:08:52,42.805,6.029,CST-1368DR,7277,10196,15299,0.082,551
2019-11-27T11:11:54,42.805,6.029,CST-1368DR,7277,10193,15294,0.083,551
2019-11-27T11:14:56,42.805,6.029,CST-1368DR,7277,10196,15299,0.082,551
2019-11-27T11:17:57,42.805,6.029,CST-1368DR,7277,10194,15296,0.083,551
2019-11-27T11:20:59,42.805,6.029,CST-1368DR,7277,10195,15297,0.083,551
2019-11-27T11:24:01,42.805,6.029,CST-1368DR,7277,10196,15299,0.082,551
2019-11-27T11:27:02,42.805,6.029,CST-1368DR,7277,10197,15300,0.082,551
2019-11-27T11:30:04,42.805,6.029,CST-1368DR,7277,10196,15299,0.082,551
2019-11-27T11:33:06,42.805,6.029,CST-1368DR,7276,10191,15293,0.084,551
2019-11-27T11:36:07,42.805,6.029,CST-1368DR,7277,10197,15300,0.082,551
2019-11-27T11:39:09,42.805,6.029,CST-1368DR,7276,10195,15299,0.082,551
2019-11-27T11:42:11,42.805,6.029,CST-1368DR,7277,10194,15296,0.083,551
2019-11-27T11:45:12,42.805,6.029,CST-1368DR,7277,10195,15297,0.083,550
2019-11-27T11:48:14,42.805,6.029,CST-1368DR,7277,10196,15299,0.082,551
2019-11-27T11:51:16,42.805,6.029,CST-1368DR,7276,10194,15298,0.082,551
2019-11-27T11:54:17,42.805,6.029,CST-1368DR,7276,10195,15299,0.082,551
2019-11-27T11:57:19,42.805,6.029,CST-1368DR,7276,10195,15299,0.082,551
2019-11-27T12:00:20,42.805,6.029,CST-1368DR,7277,10194,15296,0.083,551
2019-11-27T12:03:22,42.805,6.029,CST-1368DR,7277,10194,15296,0.083,551
2019-11-27T12:06:24,42.805,6.029,CST-1368DR,7276,10196,15301,0.082,551
2019-11-27T12:09:25,42.805,6.029,CST-1368DR,7276,10195,15299,0.082,551
2019-11-27T12:12:27,42.805,6.029,CST-1368DR,7276,10195,15299,0.082,551
2019-11-27T12:15:29,42.805,6.029,CST-1368DR,7276,10193,15296,0.083,551
2019-11-27T12:18:30,42.805,6.029,CST-1368DR,7276,10192,15295,0.083,551
2019-11-27T12:21:32,42.805,6.029,CST-1368DR,7276,10194,15298,0.082,551
2019-11-27T12:24:33,42.805,6.029,CST-1368DR,7276,10196,15301,0.082,551
2019-11-27T12:27:35,42.805,6.029,CST-1368DR,7276,10195,15299,0.082,551
2019-11-27T12:30:37,42.805,6.029,CST-1368DR,7276,10194,15297,0.083,551
2019-11-27T12:33:38,42.805,6.029,CST-1368DR,7276,10194,15298,0.082,551
2019-11-27T12:36:40,42.805,6.029,CST-1368DR,7276,10194,15298,0.082,551
2019-11-27T12:39:42,42.805,6.029,CST-1368DR,7276,10194,15298,0.082,551
2019-11-27T12:42:43,42.805,6.029,CST-1368DR,7276,10194,15298,0.082,551
2019-11-27T12:45:45,42.805,6.029,CST-1368DR,7276,10193,15296,0.083,551
2019-11-27T12:48:46,42.805,6.029,CST-1368DR,7276,10194,15298,0.082,551
2019-11-27T12:51:48,42.805,6.029,CST-1368DR,7276,10194,15297,0.083,551
2019-11-27T12:54:50,42.805,6.029,CST-1368DR,7276,10195,15299,0.082,551
2019-11-27T12:57:51,42.805,6.029,CST-1368DR,7276,10194,15298,0.082,551
2019-11-27T13:00:53,42.805,6.029,CST-1368DR,7276,10194,15298,0.082,551
2019-11-27T13:03:55,42.805,6.029,CST-1368DR,7276,10194,15298,0.082,550
2019-11-27T13:06:56,42.805,6.029,CST-1368DR,7276,10195,15299,0.082,551
2019-11-27T13:09:58,42.805,6.029,CST-1368DR,7276,10179,15275,0.088,551
2019-11-27T13:12:59,42.805,6.029,CST-1368DR,7276,10193,15296,0.083,551
2019-11-27T13:16:01,42.805,6.029,CST-1368DR,7276,10194,15298,0.082,551
2019-11-27T13:19:03,42.805,6.029,CST-1368DR,7276,10194,15298,0.082,551
2019-11-27T13:22:04,42.805,6.029,CST-1368DR,7276,10195,15299,0.082,551
2019-11-27T13:25:06,42.805,6.029,CST-1368DR,7276,10193,15296,0.083,551
2019-11-27T13:28:07,42.805,6.029,CST-1368DR,7276,10191,15293,0.084,551
2019-11-27T13:31:09,42.805,6.029,CST-1368DR,7276,10194,15298,0.082,551
2019-11-27T13:34:11,42.805,6.029,CST-1368DR,7276,10195,15299,0.082,551
2019-11-27T13:37:13,42.805,6.029,CST-1368DR,7276,10195,15299,0.082,551
2019-11-27T13:40:14,42.805,6.029,CST-1368DR,7276,10194,15298,0.082,551
2019-11-27T13:43:16,42.805,6.029,CST-1368DR,7276,10195,15299,0.082,551
2019-11-27T13:46:18,42.805,6.029,CST-1368DR,7276,10194,15298,0.082,551
2019-11-27T13:49:19,42.805,6.029,CST-1368DR,7276,10193,15296,0.083,551
2019-11-27T13:52:21,42.805,6.029,CST-1368DR,7276,10196,15300,0.082,551
2019-11-27T13:55:22,42.805,6.029,CST-1368DR,7276,10194,15298,0.082,550
2019-11-27T13:58:24,42.805,6.029,CST-1368DR,7276,10191,15294,0.083,551
2019-11-27T14:01:26,42.805,6.029,CST-1368DR,7276,10188,15289,0.085,551
2019-11-27T14:04:28,42.805,6.029,CST-1368DR,7276,10191,15293,0.084,551
2019-11-27T14:07:29,42.805,6.029,CST-1368DR,7276,10194,15298,0.082,551
2019-11-27T14:10:31,42.805,6.029,CST-1368DR,7276,10194,15298,0.082,551
2019-11-27T14:13:33,42.805,6.029,CST-1368DR,7276,10193,15297,0.083,551
2019-11-27T14:16:34,42.805,6.029,CST-1368DR,7276,10194,15297,0.083,551
2019-11-27T14:19:36,42.805,6.029,CST-1368DR,7276,10193,15297,0.083,550
2019-11-27T14:22:38,42.805,6.029,CST-1368DR,7276,10193,15296,0.083,550
2019-11-27T14:25:39,42.805,6.029,CST-1368DR,7276,10192,15295,0.083,551
2019-11-27T14:28:41,42.805,6.029,CST-1368DR,7276,10195,15299,0.082,551
2019-11-27T14:31:42,42.805,6.029,CST-1368DR,7276,10193,15297,0.083,551
2019-11-27T14:34:44,42.805,6.029,CST-1368DR,7276,10194,15297,0.083,551
2019-11-27T14:37:46,42.805,6.029,CST-1368DR,7276,10194,15298,0.082,550
2019-11-27T14:40:47,42.805,6.029,CST-1368DR,7276,10194,15297,0.083,551
2019-11-27T14:43:49,42.805,6.029,CST-1368DR,7276,10194,15298,0.082,551
2019-11-27T14:46:50,42.805,6.029,CST-1368DR,7275,10193,15298,0.082,551
2019-11-27T14:49:52,42.805,6.029,CST-1368DR,7276,10194,15297,0.083,551
2019-11-27T14:52:54,42.805,6.029,CST-1368DR,7275,10194,15299,0.082,551
2019-11-27T14:55:56,42.805,6.029,CST-1368DR,7275,10194,15300,0.082,550
2019-11-27T14:58:57,42.805,6.029,CST-1368DR,7275,10195,15301,0.082,551
2019-11-27T15:01:59,42.805,6.029,CST-1368DR,7276,10194,15298,0.082,551
2019-11-27T15:05:01,42.805,6.029,CST-1368DR,7275,10190,15293,0.084,551
2019-11-27T15:08:02,42.805,6.029,CST-1368DR,7275,10194,15299,0.082,550
2019-11-27T15:11:04,42.805,6.029,CST-1368DR,7275,10194,15299,0.082,551
2019-11-27T15:14:05,42.805,6.029,CST-1368DR,7275,10194,15299,0.082,551
2019-11-27T15:17:07,42.805,6.029,CST-1368DR,7275,10191,15295,0.083,551
2019-11-27T15:20:09,42.805,6.029,CST-1368DR,7275,10193,15299,0.082,551
2019-11-27T15:23:10,42.805,6.029,CST-1368DR,7275,10193,15299,0.082,551
2019-11-27T15:26:12,42.805,6.029,CST-1368DR,7275,10195,15301,0.082,551
2019-11-27T15:29:13,42.805,6.029,CST-1368DR,7275,10191,15295,0.083,550
2019-11-27T15:32:15,42.805,6.029,CST-1368DR,7275,10191,15295,0.083,551
2019-11-27T15:35:17,42.805,6.029,CST-1368DR,7275,10192,15297,0.083,551
2019-11-27T15:38:18,42.805,6.029,CST-1368DR,7275,10194,15299,0.082,551
2019-11-27T15:41:20,42.805,6.029,CST-1368DR,7275,10191,15295,0.083,551
2019-11-27T15:44:22,42.805,6.029,CST-1368DR,7275,10194,15299,0.082,551
2019-11-27T15:47:23,42.805,6.029,CST-1368DR,7275,10194,15299,0.082,551
2019-11-27T15:50:25,42.805,6.029,CST-1368DR,7275,10190,15294,0.083,551
2019-11-27T15:53:27,42.805,6.029,CST-1368DR,7275,10190,15294,0.083,551
2019-11-27T15:56:28,42.805,6.029,CST-1368DR,7275,10193,15298,0.082,551
2019-11-27T15:59:30,42.805,6.029,CST-1368DR,7275,10193,15299,0.082,551
2019-11-27T16:02:32,42.805,6.029,CST-1368DR,7275,10193,15299,0.082,551
2019-11-27T16:05:34,42.805,6.029,CST-1368DR,7275,10192,15297,0.083,551
2019-11-27T16:08:35,42.805,6.029,CST-1368DR,7275,10192,15297,0.083,551
2019-11-27T16:11:37,42.805,6.029,CST-1368DR,7275,10194,15300,0.082,551
2019-11-27T16:14:39,42.805,6.029,CST-1368DR,7275,10190,15294,0.083,551
2019-11-27T16:17:40,42.805,6.029,CST-1368DR,7275,10192,15297,0.083,551
2019-11-27T16:20:42,42.805,6.029,CST-1368DR,7275,10193,15299,0.082,551
2019-11-27T16:23:43,42.805,6.029,CST-1368DR,7275,10194,15299,0.082,551
2019-11-27T16:26:45,42.805,6.029,CST-1368DR,7275,10192,15297,0.083,551
2019-11-27T16:29:47,42.805,6.029,CST-1368DR,7275,10190,15294,0.083,551
2019-11-27T16:32:48,42.805,6.029,CST-1368DR,7275,10192,15297,0.083,550
2019-11-27T16:35:50,42.805,6.029,CST-1368DR,7275,10194,15299,0.082,551
2019-11-27T16:38:52,42.805,6.029,CST-1368DR,7275,10193,15299,0.082,551